Regional Weather Roundup
Issued by NWS Northern Indiana

Home | Current Version | Previous Version | Graphics & Text | Print | Product List | Glossary On
Versions: 1 2 3 4 5 6 7 8 9 10 11 12 13 14 15 16 17 18 19 20 21 22 23 24 25 26 27 28 29 30 31 32 33 34 35 36 37 38 39 40 41 42 43 44 45 46 47 48 49 50
000
ASUS43 KIWX 270400
RWRIWX

KIWX WEATHER ROUNDUP
NATIONAL WEATHER SERVICE NORTHERN INDIANA
1200 AM EDT THU APR 27 2017

NOTE: "FAIR" INDICATES FEW OR NO CLOUDS BELOW 12,000 FEET WITH NO
SIGNIFICANT WEATHER AND/OR OBSTRUCTIONS TO VISIBILITY.

* THESE STATIONS ARE NOT UNDER NWS QUALITY CONTROL. THEY ALSO MAY NOT
  REPORT WEATHER SUCH AS PRECIPITATION OR FOG.

INZ001>027-270500-
NORTHERN INDIANA

CITY           SKY/WX    TMP DP  RH WIND       PRES   REMARKS
KNOX*          CLOUDY    61  50  67 SW5       29.50F
SOUTH BEND     TSTM      62  59  90 S7        29.51R
GOSHEN         MOCLDY    64  59  83 SE7       29.47F
MONTICELLO*    CLOUDY    61  59  94 CALM      29.49F
ANGOLA*        CLEAR     64  55  72 SE6       29.50F
FORT WAYNE     MOCLDY    62  58  86 SE3       29.51F
PERU/GRISSOM   MOCLDY    63  63 100 SW6       29.50R

$$
INZ028>050-270500-
CENTRAL INDIANA

CITY           SKY/WX    TMP DP  RH WIND       PRES   REMARKS
LAFAYETTE      LGT RAIN  60  60 100 W5        29.50R
KOKOMO*        CLOUDY    62  60  93 SE7       29.51S
MUNCIE*        PTCLDY    73  52  47 S10       29.52S
INDIANAPOLIS   MOCLDY    70  56  61 S14       29.49F

$$
MIZ043>046-050>051-056>058-064>065-071>073-077>080-270500-
SOUTHWEST LOWER MICHIGAN

CITY           SKY/WX    TMP DP  RH WIND       PRES   REMARKS
BATTLE CREEK   CLOUDY    69  58  67 S6        29.48R
BENTON HARBOR  LGT RAIN  60  54  80 SW17      29.53R
COLDWATER*     CLOUDY    64  58  80 SE8       29.49F
HILLSDALE*     MOCLDY    61  55  82 SE6       29.51F
HOLLAND        CLOUDY    63  56  78 SW3       29.46F
GRAND RAPIDS   CLOUDY    65  56  72 E5        29.46S
KALAMAZOO      CLOUDY    69  55  60 S6        29.47S
STURGIS*       CLOUDY    64  60  86 SE8       29.47F
THREE RIVERS*  MOCLDY    67  58  74 S8        29.48F

$$
OHZ001>008-015>018-024>025-270500-
NORTHWEST OHIO

CITY           SKY/WX    TMP DP  RH WIND       PRES   REMARKS
DEFIANCE       CLOUDY    72  54  53 S13G20    29.52F
FINDLAY        PTCLDY    70  48  45 S10       29.55F
TOLEDO EXPRESS CLOUDY    73  54  51 S8        29.53F
TOLEDO METCALF MOCLDY    71  53  52 S12       29.55F
LIMA           CLOUDY    68  50  52 S9        29.55F

$$
AND FOR LAKE MICHIGAN COASTAL AND OPEN LAKE BUOY OBSERVATIONS

STATION/POSITION TEMP    WIND        PRES    VSBY  WAVE
                 AIR SEA DIR/SP/G                  HT/PER
                 (F)     (DEG/KT/KT) (MB)    (MI)  (FT/S)
CALUMET HARBOR    62      80/  4/  5  996.8F
MICHIGAN CITY     59     280/  3/  4   N/A
BURNS HARBOR      62        CALM      998.6F
SOUTH LAKE BUOY   50 42  180/  4/  4  998.0          1
4 MI NW BRIDGMAN  53 49  290/ 10/ 12  999.2R         1/ 3
MICHIGAN CITY     54 49                N/A           1

$$
&&




USA.gov is the U.S. government's official web portal to all federal, state and local government web resources and services.